COSMOS 1275 DEB

Satellite information

Favourite Embed

Satellite Type and Status

DEBRISIN ORBIT

Key statistics

Satellite COSMOS 1275 DEB at a glance.

Uptime

16264

Days in orbit

Revolutions

≈ 13.8

Per day

Orbit

LEO

Low Earth Orbit

Inclination

83.0

Latest

Satellite identification and parameters

Extended collection of information and parameters for COSMOS 1275 DEB.

Object identification

Identified? True

Debris? True

Object name: COSMOS 1275 DEB

International designator: 1981-053RF

Object number (NORAD): 42143

Object ID (CCSDS): 42143

Country: COMMONWEALTH OF INDEPENDENT STATES (CIS)

Current information (Y/N): Y

RCS size: SMALL

Orbital parameters

Period: 104.301 minutes

Inclination: 83.0158 deg

SMA: 7339.811 km

Apoapsis: 1031.479 km

Periapsis: 891.872 km

RAAN: 339.7087 deg

Eccentricy: 0.00951026

Argument of periapsis: 230.0586 deg

Mean anomaly: 129.2191 deg

Mean motion: 13.80624217 rev/day

Mean motion (dot): 0.00001695 rev/day2

B* drag term: 0.0015482444 1/REarth

Two-line elements (TLE)

Creation date: Nov. 26, 2025, 11:31 a.m.

Reference frame: TEME

Reference center: EARTH

Epoch: Nov. 25, 2025, 5:58 p.m. UTC

TLE line 0: 0 COSMOS 1275 DEB

TLE line 1: 1 42143U 81053RF 25329.74874863 .00001695 00000-0 15482-2 0 9992

TLE line 2: 2 42143 83.0158 339.7087 0095103 230.0586 129.2191 13.80624217602816

Live tracking on map

Real-time ground track for satellite COSMOS 1275 DEB.

In-orbit conjunctions

A list of the most updated potential collisions computed for object COSMOS 1275 DEB.

Target Orbit TCA Probability of collision Miss distance Type
CZ-6A DEB SSO 2025-02-24 08:03:37 0.0001238595 112.0 (m) DEBRIS
COSMOS 469 LEO 2024-11-03 16:49:18 0.000272158 157.0 (m) PAYLOAD

Associated space launch

Navigation satellite providing location information for the Tsiklon-B navigation system

COSMOS 1275 DEB was lifted into orbit during the mission ‘Kosmos-3M | Parus 27’, on board a Kosmos-3M space rocket.

The launch took place on June 4, 1981, 3:41 p.m. from 132/2.

For more information about the launch, click the button.

Launch to space Kosmos-3M | Parus 27
Kosmos-3M | Parus 27

Agency: N/A

Status: Launch Successful

Launch date: June 4, 1981, 3:41 p.m. UTC

Rocket: Kosmos-3M

Launch pad: 132/2

Location: Plesetsk Cosmodrome, Russian Federation

...

Latest news about this satellite

There are no fresh news available about this satellite. Check back as we update our databases every day.


Newsletter sign-up

Weekly statistics, charts and insights to help you stay on top of the space industry.